Volver al catálogo

FREGAT DEB

ActivoUNKNOWN
NORAD 45888·DEBRIS·🇷🇺 Russia

Lanzado Jul 18, 2011 desde Baikonur Cosmodrome

Loading…

Próximos Pases (próximas 24 horas)

TLE

ActualizadoSource: Space-Track

Época: Sep 12, 2026, 09:27 UTC

1 45888U 11037DH  26255.39413150  .00001875  00000-0  40837-3 0  9997
2 45888  51.4547 261.8753 1800842 158.0446 210.8644 11.48244284255571

Sigue FREGAT DEB en tiempo real con AllMySat

Download on the App Store